#timestamp,LO_Frequency,Hit,StdDev 
1508882415.5,286046999.5,N
1508882435.3,286046996.6,N
1508882455.2,286046999.2,N
1508882475.0,286046999.1,N
1508882475.9,286046999.1,N
1508882495.8,286046999.4,N
1508882515.6,286046998.3,N
1508882535.4,286047001.1,N
1508882555.3,286047000.5,N
1508882575.1,286046998.5,N
1508882576.0,286046998.5,N
1508882595.8,286046998.7,N
1508882615.7,286046996.6,N
1508882635.5,286047001.7,N
1508882655.3,286047001.7,N
1508882675.2,286047000.0,N
1508882695.9,286047001.9,N
1508882715.7,286047000.3,N
1508882735.6,286046998.8,N
1508882755.4,286046996.5,N
1508882775.2,286047002.4,N
1508882795.1,286047001.7,N
1508882796.0,286047001.7,N
1508882815.8,286047000.3,N
1508882835.6,286047002.7,N
1508882855.5,286047000.4,N
1508882875.3,286047000.2,N
1508882895.1,286046999.9,N
1508882915.9,286047002.3,N
1508882935.7,286047002.5,N
1508882955.5,286047001.0,N
1508882975.4,286046999.3,N
1508882995.2,286046998.4,N
1508883015.0,286046996.8,N
1508883015.9,286046996.8,N
1508883035.8,286046999.4,N
1508883055.6,286046998.3,N
1508883075.4,286047001.8,N
1508883095.3,286047007.3,Y
1508883115.1,286047004.9,P
1508883135.9,286047009.0,P
1508883155.7,286047004.7,N
1508883175.5,286047007.0,N
1508883195.4,286047005.4,N
1508883215.2,286047002.9,N
1508883235.0,286047005.0,N
1508883235.9,286047005.0,N
1508883255.8,286047001.6,N
1508883275.6,286046998.2,N
1508883295.4,286047002.1,N
1508883315.3,286047004.2,N
1508883335.1,286047004.3,N
1508883336.0,286047004.3,N
1508883355.8,286047007.6,N
1508883375.7,286047007.2,N
1508883395.5,286047006.1,N
1508883415.3,286047006.9,N
1508883435.2,286047005.3,N
1508883455.0,286047005.9,N
1508883455.9,286047005.9,N
1508883475.7,286047003.0,N
1508883495.6,286047005.4,N
1508883515.4,286047004.6,N
1508883535.2,286047003.9,N
1508883555.1,286047006.0,N
1508883556.0,286047006.0,N
1508883575.8,286047005.5,N
1508883595.6,286047005.2,N
1508883615.5,286047005.0,N
1508883635.3,286047007.1,Y
1508883655.2,286047001.0,P
1508883675.9,286046998.5,N
1508883695.7,286046994.9,N
1508883715.6,286046992.7,N
1508883735.4,286046993.1,N
1508883755.2,286046992.3,N
1508883775.1,286046994.7,N
1508883776.0,286046994.7,N
1508883795.8,286046995.4,N
1508883815.6,286046992.2,N
1508883835.5,286046990.3,N
1508883855.3,286046992.6,N
1508883875.1,286046995.6,N
1508883895.9,286046995.8,N
1508883915.7,286046994.5,N
1508883935.5,286046995.8,N
1508883955.4,286046996.0,N
1508883975.2,286046994.5,N
1508883995.0,286046992.5,N
1508883995.9,286046992.5,N
1508884015.8,286046992.6,N
1508884035.6,286046992.4,N
1508884055.4,286046994.5,N
1508884075.3,286046992.2,N
1508884095.1,286046992.3,N
1508884115.8,286046988.6,Y
1508884135.7,286046997.6,P
1508884155.5,286046994.2,P
1508884175.3,286046997.1,N
1508884195.2,286046992.1,Y
1508884215.0,286046997.1,P
1508884215.9,286046997.1,P
1508884235.8,286046994.0,P
1508884255.6,286046993.3,Y
1508884275.4,286046998.6,P
1508884295.3,286046996.7,N
1508884315.1,286046997.2,N
1508884335.8,286046997.1,Y
1508884355.7,286046999.7,P
1508884375.5,286047000.7,N
1508884395.4,286046998.5,N
1508884415.2,286046998.1,N
1508884435.0,286046994.9,Y
1508884435.9,286046994.9,P
1508884455.8,286046997.8,N
1508884475.6,286046997.6,N
1508884495.4,286047000.1,N
1508884515.3,286047004.7,N
1508884535.1,286047003.6,N
1508884555.8,286047005.2,N
1508884575.7,286047006.8,N
1508884595.5,286047010.2,N
1508884615.3,286047006.1,N
1508884635.2,286047004.5,N
1508884655.0,286047004.9,N
1508884655.9,286047004.9,N
1508884675.7,286047009.2,N
1508884695.6,286047005.1,N
1508884715.4,286047007.7,N
1508884735.2,286047006.6,N
1508884755.1,286047008.3,N
1508884756.0,286047008.3,N
1508884775.8,286047005.8,N
1508884795.6,286047005.3,N
1508884815.5,286047007.7,N
1508884835.3,286047012.0,Y
1508884855.2,286047007.1,P
1508884875.9,286047002.1,N
1508884895.7,286047004.5,N
1508884915.6,286047006.8,Y
1508884935.4,286047007.1,P
1508884955.2,286047006.7,P
1508884975.1,286047006.6,P
1508884976.0,286047006.6,Y
1508884995.8,286047001.5,P
1508885015.7,286047003.9,N
1508885035.5,286047001.9,N
1508885055.3,286047003.6,N
1508885075.2,286047004.9,N
1508885095.9,286047007.4,Y
1508885115.7,286047003.3,P
1508885135.6,286047002.8,P
1508885155.4,286046999.8,N
1508885175.2,286047005.5,Y
1508885195.1,286047001.8,P
1508885196.0,286047001.8,P
1508885215.8,286047000.5,N
1508885235.6,286046998.9,N
1508885255.5,286046994.9,Y
1508885275.3,286046997.5,P
1508885295.2,286046997.4,N
1508885315.9,286046996.3,N
1508885335.7,286046993.9,Y
1508885355.6,286046999.4,P
1508885375.4,286046995.4,P
1508885395.2,286046993.3,P
1508885415.1,286046995.0,N
1508885416.0,286046995.0,N
1508885435.8,286046995.2,N
1508885455.6,286046996.3,N
1508885475.5,286046995.2,N
1508885495.3,286046995.5,N
1508885515.1,286046997.7,N
1508885535.9,286046993.5,Y
1508885555.7,286046995.1,P
1508885575.6,286046996.2,P
1508885595.4,286046996.3,P
1508885615.2,286046994.4,Y
1508885635.1,286046991.9,P
1508885636.0,286046991.9,P
1508885655.8,286046990.4,P
1508885675.6,286046995.3,N
1508885695.5,286047000.6,N
1508885715.3,286046996.8,N
1508885735.1,286046993.9,N
1508885755.9,286046995.4,N
1508885775.7,286046995.1,N
1508885795.5,286046993.9,N
1508885815.4,286046994.7,N
1508885835.2,286046990.5,Y
1508885855.0,286046994.3,P
1508885856.0,286046994.3,P
1508885875.8,286046991.9,P
1508885895.6,286046999.1,N
1508885915.5,286046996.6,N
1508885935.3,286046993.7,N
1508885955.1,286046991.2,Y
1508885975.9,286046994.7,P
1508885995.7,286046994.3,P
